sat.trackr.live / text

‹ back to catalog

IRIDIUM 161

NORAD 43478 · 2018-047C

PAYLOAD ACTIVE UNKNOWN

§ Identity

Operator
Country
US
Launch date
2018-05-22
Launch site
AFWTR
Launch vehicle
Mass (kg)
RCS (m²)

Purposes: comms

External: N2YO · Heavens-Above · Gunter

§ Orbital elements

Epoch: 2026-05-25T03:37:39.715104Z

Period
99.77 min
Inclination
86.4470°
Eccentricity
0.0002404
Mean motion
14.43280717 rev/d
Perigee alt
746.0 km
Apogee alt
749.4 km
Semi-major
7,125.8 km
B*
7.4429e-5
RAAN
98.1024°
Arg perigee
91.9514°
Mean anomaly
268.1962°
Rev number
42,181

§ Raw data

IRIDIUM 1611 43478U 18047C   26145.15115411  .00000271  00000+0  74429-4 0  99922 43478  86.4470  98.1024 0002404  91.9514 268.1962 14.43280717421817

JSON: /api/v1/satellites/43478 · /tle

For live sub-satellite position, see the globe view (requires WebGL).

§ Visibility from observer

Set your observer location to see the next 7 days of passes ≥ 10°. The values pass through the URL so the page stays shareable.

No JS? Fill the form by hand. The geolocation button needs JavaScript.